Hourly Data Report for August 10, 2022

TORONTO CITY
ONTARIO
Current Station Operator: ECCC - MSC

43°40'00.000" N
79°24'00.000" W
112.50 m
6158355
71508
XTO

Download Data

Hourly Data (August 2022)
Hourly Data Report for August 10, 2022
TIME
LST
Temp Definition
°C
Dew Point Definition
°C
Rel Hum Definition
%
Precip. Amount Definition
mm

Wind Dir Definition
10's deg

Wind Spd Definition
km/h
Visibility Definition
km
Stn Press Definition
kPa
Hmdx Definition


Wind Chill Definition


Weather Definition


00:00 19.2 14.1 73 0.0       100.56     LegendNANA
01:00 18.7 14.2 75 0.0       100.57     LegendNANA
02:00 18.6 14.4 77 0.0       100.57     LegendNANA
03:00 17.8 14.5 81 0.0       100.58     LegendNANA
04:00 17.4 14.6 83 0.0       100.57     LegendNANA
05:00 17.6 14.6 83 0.0       100.56     LegendNANA
06:00 17.9 14.7 81 0.0       100.59     LegendNANA
07:00 18.9 14.9 78 0.0       100.63     LegendNANA
08:00 20.0 15.4 75 0.0       100.66     LegendNANA
09:00 21.4 16.0 72 0.0       100.66 26   LegendNANA
10:00 22.4 15.7 66 0.0       100.67 27   LegendNANA
11:00 23.1 15.7 63 0.0       100.66 28   LegendNANA
12:00 23.7 15.1 59 0.0       100.61 28   LegendNANA
13:00 23.9 14.2 55 0.0       100.55 27   LegendNANA
14:00 25.6 13.3 47 0.0       100.46 29   LegendNANA
15:00 25.8 12.1 43 0.0       100.37 28   LegendNANA
16:00 25.3 14.3 50 0.0       100.29 29   LegendNANA
17:00 25.0 13.8 50 0.0       100.24 28   LegendNANA
18:00 24.9 14.6 53 0.0       100.18 29   LegendNANA
19:00 24.3 14.0 53 0.0       100.15 28   LegendNANA
20:00 22.5 17.2 72 0.0       100.21 28   LegendNANA
21:00 21.7 17.5 77 0.0       100.25 27   LegendNANA
22:00 20.6 17.4 82 0.0       100.23 26   LegendNANA
23:00 20.6 15.4 72 0.0       100.24 25   LegendNANA

Notes on Data Quality.

Legend

  • E = Estimated
  • M = Missing
  • NA = Not Available*
  • [empty] = Indicates an unobserved value
Date modified: